sat.trackr.live / text

‹ back to catalog

METEOSAT-9 (MSG-2)

NORAD 28912 · 2005-049B

PAYLOAD ACTIVE UNKNOWN

§ Identity

Operator
Country
EUME
Launch date
2005-12-21
Launch site
FRGUI
Launch vehicle
Mass (kg)
RCS (m²)
2.08

Purposes: comms, earth_obs

External: N2YO · Heavens-Above · Gunter

§ Orbital elements

Epoch: 2026-09-19T13:46:02.839008Z

Period
1,436.01 min
Inclination
9.5708°
Eccentricity
0.0001874
Mean motion
1.00277585 rev/d
Perigee alt
35,777.1 km
Apogee alt
35,792.9 km
Semi-major
42,163.1 km
B*
0.0000e+0
RAAN
53.2063°
Arg perigee
351.9658°
Mean anomaly
205.6065°
Rev number
794

§ Raw data

METEOSAT-9 (MSG-2)1 28912U 05049B   26262.57364397  .00000122  00000+0  00000+0 0  99952 28912   9.5708  53.2063 0001874 351.9658 205.6065  1.00277585  7948

JSON: /api/v1/satellites/28912 · /tle

For live sub-satellite position, see the globe view (requires WebGL).

§ Visibility from observer

Set your observer location to see the next 7 days of passes ≥ 10°. The values pass through the URL so the page stays shareable.

No JS? Fill the form by hand. The geolocation button needs JavaScript.